Time,TemperatureF,DewpointF,PressureIn,WindDirection,WindDirectionDegrees,WindSpeedMPH,WindSpeedGustMPH,Humidity,HourlyPrecipIn,Conditions,Clouds,dailyrainin,SoftwareType,DateUTC
2013-05-16 00:11:00,48.4,47.9,29.59,SW,225,0.0,-999.0,98,-99.99,,,0.00,Acu-Link.com,2013-05-16 04:11:00,
2013-05-16 00:26:00,48.4,47.9,29.59,SSW,202,0.0,-999.0,98,-99.99,,,0.00,Acu-Link.com,2013-05-16 04:26:00,
2013-05-16 00:42:00,48.4,47.9,29.59,NNW,337,0.0,-999.0,98,-99.99,,,0.00,Acu-Link.com,2013-05-16 04:42:00,
2013-05-16 00:57:00,48.4,47.9,29.59,NNW,337,0.0,-999.0,98,-99.99,,,0.00,Acu-Link.com,2013-05-16 04:57:00,
2013-05-16 01:12:00,48.4,47.9,29.58,NNE,22,0.0,-999.0,98,-99.99,,,0.00,Acu-Link.com,2013-05-16 05:12:00,
2013-05-16 01:27:00,48.2,47.7,29.59,NW,315,0.0,-999.0,98,-99.99,,,0.00,Acu-Link.com,2013-05-16 05:27:00,
2013-05-16 01:43:00,48.2,47.7,29.58,WNW,292,0.0,-999.0,98,-99.99,,,0.00,Acu-Link.com,2013-05-16 05:43:00,
2013-05-16 01:58:00,48.0,47.5,29.58,WNW,292,0.0,-999.0,98,-99.99,,,0.00,Acu-Link.com,2013-05-16 05:58:00,
2013-05-16 02:13:00,47.8,47.3,29.58,NNW,337,0.0,-999.0,98,-99.99,,,0.00,Acu-Link.com,2013-05-16 06:13:00,
2013-05-16 02:28:00,47.8,47.3,29.58,NW,315,0.0,-999.0,98,-99.99,,,0.00,Acu-Link.com,2013-05-16 06:28:00,
2013-05-16 02:43:00,47.7,47.2,29.58,East,90,0.0,-999.0,98,-99.99,,,0.00,Acu-Link.com,2013-05-16 06:43:00,
2013-05-16 02:59:00,47.5,47.0,29.57,NNW,337,0.0,-999.0,98,-99.99,,,0.00,Acu-Link.com,2013-05-16 06:59:00,
2013-05-16 03:14:00,47.3,46.8,29.58,ESE,112,0.0,-999.0,98,-99.99,,,0.00,Acu-Link.com,2013-05-16 07:14:00,
2013-05-16 03:30:00,47.3,46.8,29.57,ESE,112,0.0,-999.0,98,-99.99,,,0.00,Acu-Link.com,2013-05-16 07:30:00,
2013-05-16 03:45:00,47.1,46.6,29.58,North,0,0.0,-999.0,98,-99.99,,,0.00,Acu-Link.com,2013-05-16 07:45:00,
2013-05-16 04:00:00,47.1,46.6,29.58,West,270,0.0,-999.0,98,-99.99,,,0.00,Acu-Link.com,2013-05-16 08:00:00,
2013-05-16 04:15:00,47.1,46.6,29.57,West,270,0.0,-999.0,98,-99.99,,,0.00,Acu-Link.com,2013-05-16 08:15:00,
2013-05-16 04:30:00,47.1,46.6,29.56,NNW,337,0.0,-999.0,98,-99.99,,,0.00,Acu-Link.com,2013-05-16 08:30:00,
2013-05-16 04:45:00,46.9,46.4,29.56,ESE,112,0.0,-999.0,98,-99.99,,,0.00,Acu-Link.com,2013-05-16 08:45:00,
2013-05-16 05:00:00,46.6,46.1,29.55,NNW,337,0.0,-999.0,98,-99.99,,,0.00,Acu-Link.com,2013-05-16 09:00:00,
2013-05-16 05:16:00,46.4,45.9,29.56,East,90,0.0,-999.0,98,-99.99,,,0.00,Acu-Link.com,2013-05-16 09:16:00,
2013-05-16 05:31:00,46.0,45.5,29.56,East,90,0.0,-999.0,98,-99.99,,,0.00,Acu-Link.com,2013-05-16 09:31:00,
2013-05-16 05:46:00,46.0,45.5,29.57,NNE,22,0.0,-999.0,98,-99.99,,,0.00,Acu-Link.com,2013-05-16 09:46:00,
2013-05-16 06:01:00,46.0,45.5,29.58,NNE,22,0.0,-999.0,98,-99.99,,,0.00,Acu-Link.com,2013-05-16 10:01:00,
2013-05-16 06:16:00,45.7,45.2,29.58,North,0,0.0,-999.0,98,-99.99,,,0.00,Acu-Link.com,2013-05-16 10:16:00,
2013-05-16 06:31:00,45.7,45.2,29.57,North,0,0.0,-999.0,98,-99.99,,,0.00,Acu-Link.com,2013-05-16 10:31:00,
2013-05-16 06:47:00,45.9,45.4,29.57,ENE,67,0.0,-999.0,98,-99.99,,,0.00,Acu-Link.com,2013-05-16 10:47:00,
2013-05-16 07:02:00,46.0,45.5,29.57,NNE,22,0.0,-999.0,98,-99.99,,,0.00,Acu-Link.com,2013-05-16 11:02:00,
2013-05-16 07:17:00,46.4,45.9,29.57,NW,315,0.0,-999.0,98,-99.99,,,0.00,Acu-Link.com,2013-05-16 11:17:00,
2013-05-16 07:32:00,46.8,46.3,29.58,NNE,22,0.0,-999.0,98,-99.99,,,0.00,Acu-Link.com,2013-05-16 11:32:00,
2013-05-16 07:48:00,47.7,47.2,29.57,South,180,0.0,-999.0,98,-99.99,,,0.00,Acu-Link.com,2013-05-16 11:48:00,
2013-05-16 08:03:00,48.6,48.1,29.57,ESE,112,0.0,-999.0,98,-99.99,,,0.00,Acu-Link.com,2013-05-16 12:03:00,
2013-05-16 08:18:00,50.2,49.7,29.57,SW,225,0.0,-999.0,98,-99.99,,,0.00,Acu-Link.com,2013-05-16 12:18:00,
2013-05-16 08:33:00,52.0,51.5,29.57,SE,135,0.0,-999.0,98,-99.99,,,0.00,Acu-Link.com,2013-05-16 12:33:00,
2013-05-16 08:49:00,53.1,52.5,29.57,SSE,157,1.7,-999.0,98,-99.99,,,0.00,Acu-Link.com,2013-05-16 12:49:00,
2013-05-16 09:04:00,54.9,54.3,29.57,SSW,202,0.0,-999.0,98,-99.99,,,0.00,Acu-Link.com,2013-05-16 13:04:00,
2013-05-16 09:19:00,57.4,56.3,29.57,ESE,112,0.0,-999.0,96,-99.99,,,0.00,Acu-Link.com,2013-05-16 13:19:00,
2013-05-16 09:34:00,59.2,56.6,29.57,ENE,67,0.0,-999.0,91,-99.99,,,0.00,Acu-Link.com,2013-05-16 13:34:00,
2013-05-16 09:49:00,59.7,57.4,29.56,NNE,22,0.0,-999.0,92,-99.99,,,0.00,Acu-Link.com,2013-05-16 13:49:00,
2013-05-16 10:05:00,62.2,58.0,29.56,South,180,0.0,-999.0,86,-99.99,,,0.00,Acu-Link.com,2013-05-16 14:05:00,
2013-05-16 10:20:00,63.7,57.1,29.55,South,180,0.0,-999.0,79,-99.99,,,0.00,Acu-Link.com,2013-05-16 14:20:00,
2013-05-16 10:35:00,65.5,56.2,29.55,ESE,112,3.7,-999.0,72,-99.99,,,0.00,Acu-Link.com,2013-05-16 14:35:00,
2013-05-16 10:50:00,67.3,51.5,29.55,NNE,22,2.7,-999.0,57,-99.99,,,0.00,Acu-Link.com,2013-05-16 14:50:00,
2013-05-16 11:06:00,68.4,48.5,29.55,South,180,1.1,-999.0,49,-99.99,,,0.00,Acu-Link.com,2013-05-16 15:06:00,
2013-05-16 11:21:00,70.0,48.3,29.55,ESE,112,3.2,-999.0,46,-99.99,,,0.00,Acu-Link.com,2013-05-16 15:21:00,
2013-05-16 11:36:00,70.2,47.3,29.55,South,180,5.3,-999.0,44,-99.99,,,0.00,Acu-Link.com,2013-05-16 15:36:00,
2013-05-16 11:51:00,71.8,48.1,29.56,East,90,1.7,-999.0,43,-99.99,,,0.00,Acu-Link.com,2013-05-16 15:51:00,
2013-05-16 12:06:00,72.0,47.6,29.55,SSE,157,3.2,-999.0,42,-99.99,,,0.00,Acu-Link.com,2013-05-16 16:06:00,
2013-05-16 12:22:00,71.2,46.3,29.55,ESE,112,3.7,-999.0,41,-99.99,,,0.00,Acu-Link.com,2013-05-16 16:22:00,
2013-05-16 12:37:00,73.0,44.5,29.54,North,0,2.7,-999.0,36,-99.99,,,0.00,Acu-Link.com,2013-05-16 16:37:00,
2013-05-16 12:52:00,72.0,44.3,29.55,NNW,337,3.2,-999.0,37,-99.99,,,0.00,Acu-Link.com,2013-05-16 16:52:00,
2013-05-16 13:07:00,72.1,42.9,29.54,NNE,22,3.2,-999.0,35,-99.99,,,0.00,Acu-Link.com,2013-05-16 17:07:00,
2013-05-16 13:22:00,73.4,40.9,29.55,NNE,22,4.7,-999.0,31,-99.99,,,0.00,Acu-Link.com,2013-05-16 17:22:00,
2013-05-16 13:38:00,72.3,42.3,29.52,WNW,292,1.7,-999.0,34,-99.99,,,0.00,Acu-Link.com,2013-05-16 17:38:00,
2013-05-16 13:53:00,73.8,42.9,29.53,NNE,22,3.2,-999.0,33,-99.99,,,0.00,Acu-Link.com,2013-05-16 17:53:00,
2013-05-16 14:08:00,73.6,41.9,29.52,West,270,1.7,-999.0,32,-99.99,,,0.00,Acu-Link.com,2013-05-16 18:08:00,
2013-05-16 14:23:00,74.7,43.7,29.53,East,90,1.1,-999.0,33,-99.99,,,0.00,Acu-Link.com,2013-05-16 18:23:00,
2013-05-16 14:38:00,74.3,43.3,29.52,NE,45,4.2,-999.0,33,-99.99,,,0.00,Acu-Link.com,2013-05-16 18:38:00,
2013-05-16 14:54:00,73.8,43.7,29.51,NNW,337,2.2,-999.0,34,-99.99,,,0.00,Acu-Link.com,2013-05-16 18:54:00,
2013-05-16 15:09:00,72.7,41.9,29.51,NNE,22,3.2,-999.0,33,-99.99,,,0.00,Acu-Link.com,2013-05-16 19:09:00,
2013-05-16 15:24:00,72.7,42.7,29.52,NNW,337,1.7,-999.0,34,-99.99,,,0.00,Acu-Link.com,2013-05-16 19:24:00,
2013-05-16 15:39:00,73.2,43.1,29.50,NW,315,0.0,-999.0,34,-99.99,,,0.00,Acu-Link.com,2013-05-16 19:39:00,
2013-05-16 15:55:00,73.2,42.4,29.51,North,0,1.7,-999.0,33,-99.99,,,0.00,Acu-Link.com,2013-05-16 19:55:00,
2013-05-16 16:10:00,72.1,41.4,29.52,NW,315,2.2,-999.0,33,-99.99,,,0.00,Acu-Link.com,2013-05-16 20:10:00,
2013-05-16 16:25:00,72.0,41.3,29.53,WNW,292,2.7,-999.0,33,-99.99,,,0.00,Acu-Link.com,2013-05-16 20:25:00,
2013-05-16 16:40:00,71.8,41.9,29.53,NNW,337,1.7,-999.0,34,-99.99,,,0.00,Acu-Link.com,2013-05-16 20:40:00,
2013-05-16 16:55:00,71.2,44.3,29.54,NNE,22,1.7,-999.0,38,-99.99,,,0.00,Acu-Link.com,2013-05-16 20:55:00,
2013-05-16 17:11:00,70.7,43.8,29.55,North,0,3.7,-999.0,38,-99.99,,,0.00,Acu-Link.com,2013-05-16 21:11:00,
2013-05-16 17:26:00,71.1,44.2,29.55,NW,315,3.7,-999.0,38,-99.99,,,0.00,Acu-Link.com,2013-05-16 21:26:00,
2013-05-16 17:41:00,70.0,45.2,29.57,NW,315,2.7,-999.0,41,-99.99,,,0.00,Acu-Link.com,2013-05-16 21:41:00,
2013-05-16 17:56:00,69.8,46.3,29.57,NW,315,3.7,-999.0,43,-99.99,,,0.00,Acu-Link.com,2013-05-16 21:56:00,
2013-05-16 18:11:00,68.4,46.8,29.57,WNW,292,2.7,-999.0,46,-99.99,,,0.00,Acu-Link.com,2013-05-16 22:11:00,
2013-05-16 18:27:00,67.3,45.8,29.59,NE,45,0.0,-999.0,46,-99.99,,,0.00,Acu-Link.com,2013-05-16 22:27:00,
2013-05-16 18:42:00,66.6,45.7,29.59,NNW,337,1.1,-999.0,47,-99.99,,,0.00,Acu-Link.com,2013-05-16 22:42:00,
2013-05-16 18:57:00,64.4,45.4,29.60,NW,315,2.2,-999.0,50,-99.99,,,0.00,Acu-Link.com,2013-05-16 22:57:00,
2013-05-16 19:12:00,63.1,45.7,29.61,NW,315,2.2,-999.0,53,-99.99,,,0.00,Acu-Link.com,2013-05-16 23:12:00,
2013-05-16 19:27:00,61.5,46.1,29.63,WNW,292,4.2,-999.0,57,-99.99,,,0.00,Acu-Link.com,2013-05-16 23:27:00,
2013-05-16 19:43:00,60.4,46.0,29.64,NNE,22,1.7,-999.0,59,-99.99,,,0.00,Acu-Link.com,2013-05-16 23:43:00,
2013-05-16 19:58:00,59.7,46.2,29.66,WNW,292,2.2,-999.0,61,-99.99,,,0.00,Acu-Link.com,2013-05-16 23:58:00,
2013-05-16 20:13:00,59.0,46.0,29.68,NW,315,1.7,-999.0,62,-99.99,,,0.00,Acu-Link.com,2013-05-17 00:13:00,
2013-05-16 20:28:00,58.5,45.5,29.68,WNW,292,1.7,-999.0,62,-99.99,,,0.00,Acu-Link.com,2013-05-17 00:28:00,
2013-05-16 20:43:00,57.9,45.0,29.69,NW,315,2.2,-999.0,62,-99.99,,,0.00,Acu-Link.com,2013-05-17 00:43:00,
2013-05-16 20:59:00,57.6,45.1,29.69,North,0,0.0,-999.0,63,-99.99,,,0.00,Acu-Link.com,2013-05-17 00:59:00,
2013-05-16 21:14:00,57.2,45.1,29.70,NNW,337,1.1,-999.0,64,-99.99,,,0.00,Acu-Link.com,2013-05-17 01:14:00,
2013-05-16 21:29:00,56.8,44.8,29.71,NW,315,3.7,-999.0,64,-99.99,,,0.00,Acu-Link.com,2013-05-17 01:29:00,
2013-05-16 21:44:00,57.0,44.1,29.72,West,270,3.2,-999.0,62,-99.99,,,0.00,Acu-Link.com,2013-05-17 01:44:00,
2013-05-16 22:00:00,56.7,44.7,29.73,NNE,22,2.2,-999.0,64,-99.99,,,0.00,Acu-Link.com,2013-05-17 02:00:00,
2013-05-16 22:15:00,56.3,43.9,29.73,NNW,337,1.1,-999.0,63,-99.99,,,0.00,Acu-Link.com,2013-05-17 02:15:00,
2013-05-16 22:30:00,55.8,43.8,29.74,NNE,22,0.0,-999.0,64,-99.99,,,0.00,Acu-Link.com,2013-05-17 02:30:00,
2013-05-16 22:45:00,55.6,43.6,29.74,NNE,22,1.7,-999.0,64,-99.99,,,0.00,Acu-Link.com,2013-05-17 02:45:00,
2013-05-16 23:01:00,55.2,42.8,29.75,North,0,2.2,-999.0,63,-99.99,,,0.00,Acu-Link.com,2013-05-17 03:01:00,
2013-05-16 23:16:00,54.9,43.4,29.75,WNW,292,2.2,-999.0,65,-99.99,,,0.00,Acu-Link.com,2013-05-17 03:16:00,
2013-05-16 23:31:00,54.7,43.2,29.75,NNE,22,1.7,-999.0,65,-99.99,,,0.00,Acu-Link.com,2013-05-17 03:31:00,
2013-05-16 23:47:00,54.3,43.6,29.76,WNW,292,2.2,-999.0,67,-99.99,,,0.00,Acu-Link.com,2013-05-17 03:47:00,